owner,sensor,date,latitude,longitude,vertical_datum,wind_speed,wind_to_direction,wind_speed_of_gust,qcFlag 
WAVCIS,ioos:station:WAVCIS:CSI15:1,2012-09-01T00:00:00Z,28.8332,-90.8320,10.0,7.15,136.0,,'11111222,11111222,99999999' 
WAVCIS,ioos:station:WAVCIS:CSI15:1,2012-09-01T01:00:00Z,28.8332,-90.8320,10.0,7.9,153.0,,'11111222,11111222,99999999' 
WAVCIS,ioos:station:WAVCIS:CSI15:1,2012-09-01T02:00:00Z,28.8332,-90.8320,10.0,6.244,129.0,,'11111222,11111222,99999999' 
WAVCIS,ioos:station:WAVCIS:CSI15:1,2012-09-01T03:00:00Z,28.8332,-90.8320,10.0,3.349,157.0,,'11111222,11111222,99999999' 
WAVCIS,ioos:station:WAVCIS:CSI15:1,2012-09-01T04:00:00Z,28.8332,-90.8320,10.0,7.01,131.0,,'11111222,11111222,99999999' 
WAVCIS,ioos:station:WAVCIS:CSI15:1,2012-09-01T05:00:00Z,28.8332,-90.8320,10.0,7.68,119.0,,'11111222,11111222,99999999' 
WAVCIS,ioos:station:WAVCIS:CSI15:1,2012-09-01T06:00:00Z,28.8332,-90.8320,10.0,7.79,126.0,,'11111222,11111222,99999999' 
WAVCIS,ioos:station:WAVCIS:CSI15:1,2012-09-01T07:00:00Z,28.8332,-90.8320,10.0,8.51,133.0,,'11111222,11111222,99999999' 
WAVCIS,ioos:station:WAVCIS:CSI15:1,2012-09-01T08:00:00Z,28.8332,-90.8320,10.0,7.46,137.0,,'11111222,11111222,99999999' 
WAVCIS,ioos:station:WAVCIS:CSI15:1,2012-09-01T09:00:00Z,28.8332,-90.8320,10.0,6.635,140.0,,'11111222,11111222,99999999' 
WAVCIS,ioos:station:WAVCIS:CSI15:1,2012-09-01T10:00:00Z,28.8332,-90.8320,10.0,5.908,135.0,,'11111222,11111222,99999999' 
WAVCIS,ioos:station:WAVCIS:CSI15:1,2012-09-01T11:00:00Z,28.8332,-90.8320,10.0,5.627,133.0,,'11111222,11111222,99999999' 
WAVCIS,ioos:station:WAVCIS:CSI15:1,2012-09-01T12:00:00Z,28.8332,-90.8320,10.0,4.77,123.0,,'11111222,11111222,99999999' 
WAVCIS,ioos:station:WAVCIS:CSI15:1,2012-09-01T13:00:00Z,28.8332,-90.8320,10.0,4.891,120.0,,'11111222,11111222,99999999' 
WAVCIS,ioos:station:WAVCIS:CSI15:1,2012-09-01T14:00:00Z,28.8332,-90.8320,10.0,5.852,126.0,,'11111222,11111222,99999999' 
WAVCIS,ioos:station:WAVCIS:CSI15:1,2012-09-01T15:00:00Z,28.8332,-90.8320,10.0,5.225,127.0,,'11111222,11111222,99999999' 
WAVCIS,ioos:station:WAVCIS:CSI15:1,2012-09-01T16:00:00Z,28.8332,-90.8320,10.0,5.705,122.0,,'11111222,11111222,99999999' 
WAVCIS,ioos:station:WAVCIS:CSI15:1,2012-09-01T17:00:00Z,28.8332,-90.8320,10.0,5.53,119.0,,'11111222,11111222,99999999' 
WAVCIS,ioos:station:WAVCIS:CSI15:1,2012-09-01T18:00:00Z,28.8332,-90.8320,10.0,4.826,116.0,,'11111222,11111222,99999999' 
WAVCIS,ioos:station:WAVCIS:CSI15:1,2012-09-01T19:00:00Z,28.8332,-90.8320,10.0,3.277,116.0,,'11111222,11111222,99999999' 
WAVCIS,ioos:station:WAVCIS:CSI15:1,2012-09-01T20:00:00Z,28.8332,-90.8320,10.0,4.217,131.0,,'11111222,11111222,99999999' 
WAVCIS,ioos:station:WAVCIS:CSI15:1,2012-09-01T21:00:00Z,28.8332,-90.8320,10.0,3.511,129.0,,'11111222,11111222,99999999' 
WAVCIS,ioos:station:WAVCIS:CSI15:1,2012-09-01T22:00:00Z,28.8332,-90.8320,10.0,3.719,136.0,,'11111222,11111222,99999999' 
WAVCIS,ioos:station:WAVCIS:CSI15:1,2012-09-01T23:00:00Z,28.8332,-90.8320,10.0,3.792,144.0,,'11111222,11111222,99999999' 
WAVCIS,ioos:station:WAVCIS:CSI15:1,2012-09-02T00:00:00Z,28.8332,-90.8320,10.0,3.715,150.0,,'11111222,11111222,99999999' 
WAVCIS,ioos:station:WAVCIS:CSI15:1,2012-09-02T01:00:00Z,28.8332,-90.8320,10.0,3.645,148.0,,'11111222,11111222,99999999' 
WAVCIS,ioos:station:WAVCIS:CSI15:1,2012-09-02T02:00:00Z,28.8332,-90.8320,10.0,4.34,142.0,,'11111222,11111222,99999999' 
WAVCIS,ioos:station:WAVCIS:CSI15:1,2012-09-02T03:00:00Z,28.8332,-90.8320,10.0,3.846,143.0,,'11111222,11111222,99999999' 
WAVCIS,ioos:station:WAVCIS:CSI15:1,2012-09-02T04:00:00Z,28.8332,-90.8320,10.0,5.333,128.0,,'11111222,11111222,99999999' 
WAVCIS,ioos:station:WAVCIS:CSI15:1,2012-09-02T05:00:00Z,28.8332,-90.8320,10.0,4.796,137.0,,'11111222,11111222,99999999' 
WAVCIS,ioos:station:WAVCIS:CSI15:1,2012-09-02T06:00:00Z,28.8332,-90.8320,10.0,4.688,123.0,,'11111222,11111222,99999999' 
WAVCIS,ioos:station:WAVCIS:CSI15:1,2012-09-02T07:00:00Z,28.8332,-90.8320,10.0,4.782,132.0,,'11111222,11111222,99999999' 
WAVCIS,ioos:station:WAVCIS:CSI15:1,2012-09-02T08:00:00Z,28.8332,-90.8320,10.0,4.957,125.0,,'11111222,11111222,99999999' 
WAVCIS,ioos:station:WAVCIS:CSI15:1,2012-09-02T09:00:00Z,28.8332,-90.8320,10.0,5.58,128.0,,'11111222,11111222,99999999' 
WAVCIS,ioos:station:WAVCIS:CSI15:1,2012-09-02T10:00:00Z,28.8332,-90.8320,10.0,5.639,143.0,,'11111222,11111222,99999999' 
WAVCIS,ioos:station:WAVCIS:CSI15:1,2012-09-02T11:00:00Z,28.8332,-90.8320,10.0,5.964,154.0,,'11111222,11111222,99999999' 
WAVCIS,ioos:station:WAVCIS:CSI15:1,2012-09-02T12:00:00Z,28.8332,-90.8320,10.0,5.112,162.0,,'11111222,11111222,99999999' 
WAVCIS,ioos:station:WAVCIS:CSI15:1,2012-09-02T13:00:00Z,28.8332,-90.8320,10.0,3.661,172.0,,'11111222,11111222,99999999' 
WAVCIS,ioos:station:WAVCIS:CSI15:1,2012-09-02T14:00:00Z,28.8332,-90.8320,10.0,3.141,192.0,,'11111222,11111222,99999999' 
WAVCIS,ioos:station:WAVCIS:CSI15:1,2012-09-02T15:00:00Z,28.8332,-90.8320,10.0,4.249,222.0,,'11111222,11111222,99999999' 
WAVCIS,ioos:station:WAVCIS:CSI15:1,2012-09-02T16:00:00Z,28.8332,-90.8320,10.0,3.256,234.0,,'11111222,11111222,99999999' 
WAVCIS,ioos:station:WAVCIS:CSI15:1,2012-09-02T17:00:00Z,28.8332,-90.8320,10.0,2.468,254.0,,'11111222,11111222,99999999' 
WAVCIS,ioos:station:WAVCIS:CSI15:1,2012-09-02T18:00:00Z,28.8332,-90.8320,10.0,2.164,252.0,,'11111222,11111222,99999999' 
WAVCIS,ioos:station:WAVCIS:CSI15:1,2012-09-02T19:00:00Z,28.8332,-90.8320,10.0,2.197,251.0,,'11111222,11111222,99999999' 
WAVCIS,ioos:station:WAVCIS:CSI15:1,2012-09-02T20:00:00Z,28.8332,-90.8320,10.0,1.193,215.0,,'11111222,11111222,99999999' 
WAVCIS,ioos:station:WAVCIS:CSI15:1,2012-09-02T21:00:00Z,28.8332,-90.8320,10.0,2.445,197.0,,'11111222,11111222,99999999' 
WAVCIS,ioos:station:WAVCIS:CSI15:1,2012-09-02T22:00:00Z,28.8332,-90.8320,10.0,3.066,212.0,,'11111222,11111222,99999999' 
WAVCIS,ioos:station:WAVCIS:CSI15:1,2012-09-02T23:00:00Z,28.8332,-90.8320,10.0,2.875,207.0,,'11111222,11111222,99999999' 
WAVCIS,ioos:station:WAVCIS:CSI15:1,2012-09-03T00:00:00Z,28.8332,-90.8320,10.0,4.089,202.0,,'11111222,11111222,99999999' 
WAVCIS,ioos:station:WAVCIS:CSI15:1,2012-09-03T01:00:00Z,28.8332,-90.8320,10.0,3.958,193.0,,'11111222,11111222,99999999' 
WAVCIS,ioos:station:WAVCIS:CSI15:1,2012-09-03T02:00:00Z,28.8332,-90.8320,10.0,3.651,191.0,,'11111222,11111222,99999999' 
WAVCIS,ioos:station:WAVCIS:CSI15:1,2012-09-03T03:00:00Z,28.8332,-90.8320,10.0,4.813,174.0,,'11111222,11111222,99999999' 
WAVCIS,ioos:station:WAVCIS:CSI15:1,2012-09-03T04:00:00Z,28.8332,-90.8320,10.0,4.924,171.0,,'11111222,11111222,99999999' 
WAVCIS,ioos:station:WAVCIS:CSI15:1,2012-09-03T05:00:00Z,28.8332,-90.8320,10.0,5.35,185.0,,'11111222,11111222,99999999' 
WAVCIS,ioos:station:WAVCIS:CSI15:1,2012-09-03T06:00:00Z,28.8332,-90.8320,10.0,4.01,189.0,,'11111222,11111222,99999999' 
WAVCIS,ioos:station:WAVCIS:CSI15:1,2012-09-03T07:00:00Z,28.8332,-90.8320,10.0,4.346,204.0,,'11111222,11111222,99999999' 
WAVCIS,ioos:station:WAVCIS:CSI15:1,2012-09-03T08:00:00Z,28.8332,-90.8320,10.0,4.792,208.0,,'11111222,11111222,99999999' 
WAVCIS,ioos:station:WAVCIS:CSI15:1,2012-09-03T09:00:00Z,28.8332,-90.8320,10.0,6.222,210.0,,'11111222,11111222,99999999' 
WAVCIS,ioos:station:WAVCIS:CSI15:1,2012-09-03T10:00:00Z,28.8332,-90.8320,10.0,5.28,216.0,,'11111222,11111222,99999999' 
WAVCIS,ioos:station:WAVCIS:CSI15:1,2012-09-03T11:00:00Z,28.8332,-90.8320,10.0,5.105,217.0,,'11111222,11111222,99999999' 
WAVCIS,ioos:station:WAVCIS:CSI15:1,2012-09-03T12:00:00Z,28.8332,-90.8320,10.0,5.141,223.0,,'11111222,11111222,99999999' 
WAVCIS,ioos:station:WAVCIS:CSI15:1,2012-09-03T13:00:00Z,28.8332,-90.8320,10.0,4.801,221.0,,'11111222,11111222,99999999' 
WAVCIS,ioos:station:WAVCIS:CSI15:1,2012-09-03T14:00:00Z,28.8332,-90.8320,10.0,4.214,226.0,,'11111222,11111222,99999999' 
WAVCIS,ioos:station:WAVCIS:CSI15:1,2012-09-03T15:00:00Z,28.8332,-90.8320,10.0,3.647,224.0,,'11111222,11111222,99999999' 
WAVCIS,ioos:station:WAVCIS:CSI15:1,2012-09-03T16:00:00Z,28.8332,-90.8320,10.0,2.718,213.0,,'11111222,11111222,99999999' 
WAVCIS,ioos:station:WAVCIS:CSI15:1,2012-09-03T17:00:00Z,28.8332,-90.8320,10.0,3.009,205.0,,'11111222,11111222,99999999' 
WAVCIS,ioos:station:WAVCIS:CSI15:1,2012-09-03T18:00:00Z,28.8332,-90.8320,10.0,2.99,216.0,,'11111222,11111222,99999999' 
WAVCIS,ioos:station:WAVCIS:CSI15:1,2012-09-03T19:00:00Z,28.8332,-90.8320,10.0,2.534,219.0,,'11111222,11111222,99999999' 
WAVCIS,ioos:station:WAVCIS:CSI15:1,2012-09-03T20:00:00Z,28.8332,-90.8320,10.0,3.536,215.0,,'11111222,11111222,99999999' 
WAVCIS,ioos:station:WAVCIS:CSI15:1,2012-09-03T21:00:00Z,28.8332,-90.8320,10.0,3.996,214.0,,'11111222,11111222,99999999' 
WAVCIS,ioos:station:WAVCIS:CSI15:1,2012-09-03T22:00:00Z,28.8332,-90.8320,10.0,3.897,195.0,,'11111222,11111222,99999999' 
WAVCIS,ioos:station:WAVCIS:CSI15:1,2012-09-03T23:00:00Z,28.8332,-90.8320,10.0,4.393,214.0,,'11111222,11111222,99999999' 
WAVCIS,ioos:station:WAVCIS:CSI15:1,2012-09-04T00:00:00Z,28.8332,-90.8320,10.0,4.327,215.0,,'11111222,11111222,99999999' 
WAVCIS,ioos:station:WAVCIS:CSI15:1,2012-09-04T01:00:00Z,28.8332,-90.8320,10.0,4.407,233.0,,'11111222,11111222,99999999' 
WAVCIS,ioos:station:WAVCIS:CSI15:1,2012-09-04T02:00:00Z,28.8332,-90.8320,10.0,4.088,219.0,,'11111222,11111222,99999999' 
WAVCIS,ioos:station:WAVCIS:CSI15:1,2012-09-04T03:00:00Z,28.8332,-90.8320,10.0,5.03,203.0,,'11111222,11111222,99999999' 
WAVCIS,ioos:station:WAVCIS:CSI15:1,2012-09-04T04:00:00Z,28.8332,-90.8320,10.0,5.315,204.0,,'11111222,11111222,99999999' 
WAVCIS,ioos:station:WAVCIS:CSI15:1,2012-09-04T05:00:00Z,28.8332,-90.8320,10.0,5.464,200.0,,'11111222,11111222,99999999' 
WAVCIS,ioos:station:WAVCIS:CSI15:1,2012-09-04T06:00:00Z,28.8332,-90.8320,10.0,6.358,203.0,,'11111222,11111222,99999999' 
WAVCIS,ioos:station:WAVCIS:CSI15:1,2012-09-04T07:00:00Z,28.8332,-90.8320,10.0,5.769,208.0,,'11111222,11111222,99999999' 
WAVCIS,ioos:station:WAVCIS:CSI15:1,2012-09-04T08:00:00Z,28.8332,-90.8320,10.0,6.716,202.0,,'11111222,11111222,99999999' 
WAVCIS,ioos:station:WAVCIS:CSI15:1,2012-09-04T09:00:00Z,28.8332,-90.8320,10.0,6.721,206.0,,'11111222,11111222,99999999' 
WAVCIS,ioos:station:WAVCIS:CSI15:1,2012-09-04T10:00:00Z,28.8332,-90.8320,10.0,6.362,217.0,,'11111222,11111222,99999999' 
WAVCIS,ioos:station:WAVCIS:CSI15:1,2012-09-04T11:00:00Z,28.8332,-90.8320,10.0,7.3,209.0,,'11111222,11111222,99999999' 
WAVCIS,ioos:station:WAVCIS:CSI15:1,2012-09-04T12:00:00Z,28.8332,-90.8320,10.0,7.26,219.0,,'11111222,11111222,99999999' 
WAVCIS,ioos:station:WAVCIS:CSI15:1,2012-09-04T13:00:00Z,28.8332,-90.8320,10.0,7.72,220.0,,'11111222,11111222,99999999' 
WAVCIS,ioos:station:WAVCIS:CSI15:1,2012-09-04T14:00:00Z,28.8332,-90.8320,10.0,6.245,231.0,,'11111222,11111222,99999999' 
WAVCIS,ioos:station:WAVCIS:CSI15:1,2012-09-04T15:00:00Z,28.8332,-90.8320,10.0,5.477,234.0,,'11111222,11111222,99999999' 
WAVCIS,ioos:station:WAVCIS:CSI15:1,2012-09-04T16:00:00Z,28.8332,-90.8320,10.0,5.774,231.0,,'11111222,11111222,99999999' 
WAVCIS,ioos:station:WAVCIS:CSI15:1,2012-09-04T17:00:00Z,28.8332,-90.8320,10.0,4.547,233.0,,'11111222,11111222,99999999' 
WAVCIS,ioos:station:WAVCIS:CSI15:1,2012-09-04T18:00:00Z,28.8332,-90.8320,10.0,5.151,232.0,,'11111222,11111222,99999999' 
WAVCIS,ioos:station:WAVCIS:CSI15:1,2012-09-04T19:00:00Z,28.8332,-90.8320,10.0,4.793,228.0,,'11111222,11111222,99999999' 
WAVCIS,ioos:station:WAVCIS:CSI15:1,2012-09-04T20:00:00Z,28.8332,-90.8320,10.0,5.417,229.0,,'11111222,11111222,99999999' 
WAVCIS,ioos:station:WAVCIS:CSI15:1,2012-09-04T21:00:00Z,28.8332,-90.8320,10.0,6.365,229.0,,'11111222,11111222,99999999' 
WAVCIS,ioos:station:WAVCIS:CSI15:1,2012-09-04T22:00:00Z,28.8332,-90.8320,10.0,5.276,239.0,,'11111222,11111222,99999999' 
WAVCIS,ioos:station:WAVCIS:CSI15:1,2012-09-04T23:00:00Z,28.8332,-90.8320,10.0,4.673,239.0,,'11111222,11111222,99999999' 
WAVCIS,ioos:station:WAVCIS:CSI15:1,2012-09-05T00:00:00Z,28.8332,-90.8320,10.0,4.183,243.0,,'11111222,11111222,99999999' 
WAVCIS,ioos:station:WAVCIS:CSI15:1,2012-09-05T01:00:00Z,28.8332,-90.8320,10.0,5.752,224.0,,'11111222,11111222,99999999' 
WAVCIS,ioos:station:WAVCIS:CSI15:1,2012-09-05T02:00:00Z,28.8332,-90.8320,10.0,6.052,224.0,,'11111222,11111222,99999999' 
WAVCIS,ioos:station:WAVCIS:CSI15:1,2012-09-05T03:00:00Z,28.8332,-90.8320,10.0,5.781,238.0,,'11111222,11111222,99999999' 
WAVCIS,ioos:station:WAVCIS:CSI15:1,2012-09-05T04:00:00Z,28.8332,-90.8320,10.0,5.823,222.0,,'11111222,11111222,99999999' 
WAVCIS,ioos:station:WAVCIS:CSI15:1,2012-09-05T05:00:00Z,28.8332,-90.8320,10.0,5.377,222.0,,'11111222,11111222,99999999' 
WAVCIS,ioos:station:WAVCIS:CSI15:1,2012-09-05T06:00:00Z,28.8332,-90.8320,10.0,7.03,213.0,,'11111222,11111222,99999999' 
WAVCIS,ioos:station:WAVCIS:CSI15:1,2012-09-05T07:00:00Z,28.8332,-90.8320,10.0,6.454,217.0,,'11111222,11111222,99999999' 
WAVCIS,ioos:station:WAVCIS:CSI15:1,2012-09-05T08:00:00Z,28.8332,-90.8320,10.0,7.64,217.0,,'11111222,11111222,99999999' 
WAVCIS,ioos:station:WAVCIS:CSI15:1,2012-09-05T09:00:00Z,28.8332,-90.8320,10.0,9.88,211.0,,'11111222,11111222,99999999' 
WAVCIS,ioos:station:WAVCIS:CSI15:1,2012-09-05T10:00:00Z,28.8332,-90.8320,10.0,8.07,218.0,,'11111222,11111222,99999999' 
WAVCIS,ioos:station:WAVCIS:CSI15:1,2012-09-05T11:00:00Z,28.8332,-90.8320,10.0,8.26,222.0,,'11111222,11111222,99999999' 
WAVCIS,ioos:station:WAVCIS:CSI15:1,2012-09-05T12:00:00Z,28.8332,-90.8320,10.0,6.969,224.0,,'11111222,11111222,99999999' 
WAVCIS,ioos:station:WAVCIS:CSI15:1,2012-09-05T13:00:00Z,28.8332,-90.8320,10.0,8.9,232.0,,'11111222,11111222,99999999' 
WAVCIS,ioos:station:WAVCIS:CSI15:1,2012-09-05T14:00:00Z,28.8332,-90.8320,10.0,9.15,241.0,,'11111222,11111222,99999999' 
WAVCIS,ioos:station:WAVCIS:CSI15:1,2012-09-05T15:00:00Z,28.8332,-90.8320,10.0,8.36,236.0,,'11111222,11111222,99999999' 
WAVCIS,ioos:station:WAVCIS:CSI15:1,2012-09-05T16:00:00Z,28.8332,-90.8320,10.0,8.41,249.0,,'11111222,11111222,99999999' 
WAVCIS,ioos:station:WAVCIS:CSI15:1,2012-09-05T17:00:00Z,28.8332,-90.8320,10.0,7.83,261.0,,'11111222,11111222,99999999' 
WAVCIS,ioos:station:WAVCIS:CSI15:1,2012-09-05T18:00:00Z,28.8332,-90.8320,10.0,7.85,268.0,,'11111222,11111222,99999999' 
WAVCIS,ioos:station:WAVCIS:CSI15:1,2012-09-05T19:00:00Z,28.8332,-90.8320,10.0,7.23,257.0,,'11111222,11111222,99999999' 
WAVCIS,ioos:station:WAVCIS:CSI15:1,2012-09-05T20:00:00Z,28.8332,-90.8320,10.0,6.457,259.0,,'11111222,11111222,99999999' 
WAVCIS,ioos:station:WAVCIS:CSI15:1,2012-09-05T21:00:00Z,28.8332,-90.8320,10.0,6.295,243.0,,'11111222,11111222,99999999' 
WAVCIS,ioos:station:WAVCIS:CSI15:1,2012-09-05T22:00:00Z,28.8332,-90.8320,10.0,6.888,238.0,,'11111222,11111222,99999999' 
WAVCIS,ioos:station:WAVCIS:CSI15:1,2012-09-05T23:00:00Z,28.8332,-90.8320,10.0,7.79,236.0,,'11111222,11111222,99999999' 
WAVCIS,ioos:station:WAVCIS:CSI15:1,2012-09-06T00:00:00Z,28.8332,-90.8320,10.0,7.77,238.0,,'11111222,11111222,99999999' 
WAVCIS,ioos:station:WAVCIS:CSI15:1,2012-09-06T01:00:00Z,28.8332,-90.8320,10.0,8.96,245.0,,'11111222,11111222,99999999' 
WAVCIS,ioos:station:WAVCIS:CSI15:1,2012-09-06T02:00:00Z,28.8332,-90.8320,10.0,9.18,242.0,,'11111222,11111222,99999999' 
WAVCIS,ioos:station:WAVCIS:CSI15:1,2012-09-06T03:00:00Z,28.8332,-90.8320,10.0,8.67,245.0,,'11111222,11111222,99999999' 
WAVCIS,ioos:station:WAVCIS:CSI15:1,2012-09-06T04:00:00Z,28.8332,-90.8320,10.0,8.06,250.0,,'11111222,11111222,99999999' 
WAVCIS,ioos:station:WAVCIS:CSI15:1,2012-09-06T05:00:00Z,28.8332,-90.8320,10.0,7.44,256.0,,'11111222,11111222,99999999' 
WAVCIS,ioos:station:WAVCIS:CSI15:1,2012-09-06T06:00:00Z,28.8332,-90.8320,10.0,7.45,248.0,,'11111222,11111222,99999999' 
WAVCIS,ioos:station:WAVCIS:CSI15:1,2012-09-06T07:00:00Z,28.8332,-90.8320,10.0,8.7,250.0,,'11111222,11111222,99999999' 
WAVCIS,ioos:station:WAVCIS:CSI15:1,2012-09-06T08:00:00Z,28.8332,-90.8320,10.0,9.06,258.0,,'11111222,11111222,99999999' 
WAVCIS,ioos:station:WAVCIS:CSI15:1,2012-09-06T09:00:00Z,28.8332,-90.8320,10.0,8.67,260.0,,'11111222,11111222,99999999' 
WAVCIS,ioos:station:WAVCIS:CSI15:1,2012-09-06T10:00:00Z,28.8332,-90.8320,10.0,8.65,268.0,,'11111222,11111222,99999999' 
WAVCIS,ioos:station:WAVCIS:CSI15:1,2012-09-06T11:00:00Z,28.8332,-90.8320,10.0,9.13,273.0,,'11111222,11111222,99999999' 
WAVCIS,ioos:station:WAVCIS:CSI15:1,2012-09-06T12:00:00Z,28.8332,-90.8320,10.0,9.17,275.0,,'11111222,11111222,99999999' 
WAVCIS,ioos:station:WAVCIS:CSI15:1,2012-09-06T13:00:00Z,28.8332,-90.8320,10.0,10.65,287.0,,'11111222,11111222,99999999' 
WAVCIS,ioos:station:WAVCIS:CSI15:1,2012-09-06T14:00:00Z,28.8332,-90.8320,10.0,10.79,303.0,,'11111222,11111222,99999999' 
WAVCIS,ioos:station:WAVCIS:CSI15:1,2012-09-06T15:00:00Z,28.8332,-90.8320,10.0,8.7,308.0,,'11111222,11111222,99999999' 
WAVCIS,ioos:station:WAVCIS:CSI15:1,2012-09-06T16:00:00Z,28.8332,-90.8320,10.0,9.33,316.0,,'11111222,11111222,99999999' 
WAVCIS,ioos:station:WAVCIS:CSI15:1,2012-09-06T17:00:00Z,28.8332,-90.8320,10.0,8.28,314.0,,'11111222,11111222,99999999' 
WAVCIS,ioos:station:WAVCIS:CSI15:1,2012-09-06T18:00:00Z,28.8332,-90.8320,10.0,5.759,300.0,,'11111222,11111222,99999999' 
WAVCIS,ioos:station:WAVCIS:CSI15:1,2012-09-06T19:00:00Z,28.8332,-90.8320,10.0,6.583,284.0,,'11111222,11111222,99999999' 
WAVCIS,ioos:station:WAVCIS:CSI15:1,2012-09-06T20:00:00Z,28.8332,-90.8320,10.0,6.542,275.0,,'11111222,11111222,99999999' 
WAVCIS,ioos:station:WAVCIS:CSI15:1,2012-09-06T21:00:00Z,28.8332,-90.8320,10.0,7.25,264.0,,'11111222,11111222,99999999' 
WAVCIS,ioos:station:WAVCIS:CSI15:1,2012-09-06T22:00:00Z,28.8332,-90.8320,10.0,7.62,256.0,,'11111222,11111222,99999999' 
WAVCIS,ioos:station:WAVCIS:CSI15:1,2012-09-06T23:00:00Z,28.8332,-90.8320,10.0,5.748,268.0,,'11111222,11111222,99999999' 
WAVCIS,ioos:station:WAVCIS:CSI15:1,2012-09-07T00:00:00Z,28.8332,-90.8320,10.0,5.2,285.0,,'11111222,11111222,99999999' 
WAVCIS,ioos:station:WAVCIS:CSI15:1,2012-09-07T01:00:00Z,28.8332,-90.8320,10.0,5.267,289.0,,'11111222,11111222,99999999' 
WAVCIS,ioos:station:WAVCIS:CSI15:1,2012-09-07T02:00:00Z,28.8332,-90.8320,10.0,4.717,271.0,,'11111222,11111222,99999999' 
WAVCIS,ioos:station:WAVCIS:CSI15:1,2012-09-07T03:00:00Z,28.8332,-90.8320,10.0,4.199,301.0,,'11111222,11111222,99999999' 
WAVCIS,ioos:station:WAVCIS:CSI15:1,2012-09-07T04:00:00Z,28.8332,-90.8320,10.0,1.514,346.0,,'11111222,11111222,99999999' 
WAVCIS,ioos:station:WAVCIS:CSI15:1,2012-09-07T05:00:00Z,28.8332,-90.8320,10.0,3.107,40.0,,'11111222,11111222,99999999' 
WAVCIS,ioos:station:WAVCIS:CSI15:1,2012-09-07T06:00:00Z,28.8332,-90.8320,10.0,3.529,35.0,,'11111222,11111222,99999999' 
WAVCIS,ioos:station:WAVCIS:CSI15:1,2012-09-07T07:00:00Z,28.8332,-90.8320,10.0,3.681,347.0,,'11111222,11111222,99999999' 
WAVCIS,ioos:station:WAVCIS:CSI15:1,2012-09-07T08:00:00Z,28.8332,-90.8320,10.0,4.971,349.0,,'11111222,11111222,99999999' 
WAVCIS,ioos:station:WAVCIS:CSI15:1,2012-09-07T09:00:00Z,28.8332,-90.8320,10.0,5.56,350.0,,'11111222,11111222,99999999' 
WAVCIS,ioos:station:WAVCIS:CSI15:1,2012-09-07T10:00:00Z,28.8332,-90.8320,10.0,5.908,347.0,,'11111222,11111222,99999999' 
WAVCIS,ioos:station:WAVCIS:CSI15:1,2012-09-07T11:00:00Z,28.8332,-90.8320,10.0,6.283,351.0,,'11111222,11111222,99999999' 
WAVCIS,ioos:station:WAVCIS:CSI15:1,2012-09-07T12:00:00Z,28.8332,-90.8320,10.0,5.905,350.0,,'11111222,11111222,99999999' 
WAVCIS,ioos:station:WAVCIS:CSI15:1,2012-09-07T13:00:00Z,28.8332,-90.8320,10.0,6.539,356.0,,'11111222,11111222,99999999' 
WAVCIS,ioos:station:WAVCIS:CSI15:1,2012-09-07T14:00:00Z,28.8332,-90.8320,10.0,6.067,3.0,,'11111222,11111222,99999999' 
WAVCIS,ioos:station:WAVCIS:CSI15:1,2012-09-07T15:00:00Z,28.8332,-90.8320,10.0,6.181,4.0,,'11111222,11111222,99999999' 
WAVCIS,ioos:station:WAVCIS:CSI15:1,2012-09-07T16:00:00Z,28.8332,-90.8320,10.0,5.529,32.0,,'11111222,11111222,99999999' 
WAVCIS,ioos:station:WAVCIS:CSI15:1,2012-09-07T17:00:00Z,28.8332,-90.8320,10.0,5.869,21.0,,'11111222,11111222,99999999' 
WAVCIS,ioos:station:WAVCIS:CSI15:1,2012-09-07T18:00:00Z,28.8332,-90.8320,10.0,4.868,24.0,,'11111222,11111222,99999999' 
WAVCIS,ioos:station:WAVCIS:CSI15:1,2012-09-07T19:00:00Z,28.8332,-90.8320,10.0,4.415,23.0,,'11111222,11111222,99999999' 
WAVCIS,ioos:station:WAVCIS:CSI15:1,2012-09-07T20:00:00Z,28.8332,-90.8320,10.0,3.352,23.0,,'11111222,11111222,99999999' 
WAVCIS,ioos:station:WAVCIS:CSI15:1,2012-09-07T21:00:00Z,28.8332,-90.8320,10.0,3.293,39.0,,'11111222,11111222,99999999' 
WAVCIS,ioos:station:WAVCIS:CSI15:1,2012-09-07T22:00:00Z,28.8332,-90.8320,10.0,3.49,63.0,,'11111222,11111222,99999999' 
WAVCIS,ioos:station:WAVCIS:CSI15:1,2012-09-07T23:00:00Z,28.8332,-90.8320,10.0,4.236,79.0,,'11111222,11111222,99999999' 
WAVCIS,ioos:station:WAVCIS:CSI15:1,2012-09-08T00:00:00Z,28.8332,-90.8320,10.0,3.328,73.0,,'11111222,11111222,99999999' 
WAVCIS,ioos:station:WAVCIS:CSI15:1,2012-09-08T01:00:00Z,28.8332,-90.8320,10.0,1.2,58.0,,'11111222,11111222,99999999' 
WAVCIS,ioos:station:WAVCIS:CSI15:1,2012-09-08T02:00:00Z,28.8332,-90.8320,10.0,1.085,48.0,,'11111222,11111222,99999999' 
WAVCIS,ioos:station:WAVCIS:CSI15:1,2012-09-08T03:00:00Z,28.8332,-90.8320,10.0,0.578,278.0,,'11111222,11111222,99999999' 
WAVCIS,ioos:station:WAVCIS:CSI15:1,2012-09-08T04:00:00Z,28.8332,-90.8320,10.0,0.849,288.0,,'11111222,11111222,99999999' 
WAVCIS,ioos:station:WAVCIS:CSI15:1,2012-09-08T05:00:00Z,28.8332,-90.8320,10.0,3.129,286.0,,'11111222,11111222,99999999' 
WAVCIS,ioos:station:WAVCIS:CSI15:1,2012-09-08T06:00:00Z,28.8332,-90.8320,10.0,3.429,284.0,,'11111222,11111222,99999999' 
WAVCIS,ioos:station:WAVCIS:CSI15:1,2012-09-08T07:00:00Z,28.8332,-90.8320,10.0,4.697,291.0,,'11111222,11111222,99999999' 
WAVCIS,ioos:station:WAVCIS:CSI15:1,2012-09-08T08:00:00Z,28.8332,-90.8320,10.0,4.138,272.0,,'11111222,11111222,99999999' 
WAVCIS,ioos:station:WAVCIS:CSI15:1,2012-09-08T09:00:00Z,28.8332,-90.8320,10.0,3.946,287.0,,'11111222,11111222,99999999' 
WAVCIS,ioos:station:WAVCIS:CSI15:1,2012-09-08T10:00:00Z,28.8332,-90.8320,10.0,3.444,269.0,,'11111222,11111222,99999999' 
WAVCIS,ioos:station:WAVCIS:CSI15:1,2012-09-08T11:00:00Z,28.8332,-90.8320,10.0,2.399,270.0,,'11111222,11111222,99999999' 
WAVCIS,ioos:station:WAVCIS:CSI15:1,2012-09-08T12:00:00Z,28.8332,-90.8320,10.0,4.131,312.0,,'11111222,11111222,99999999' 
WAVCIS,ioos:station:WAVCIS:CSI15:1,2012-09-08T13:00:00Z,28.8332,-90.8320,10.0,4.85,322.0,,'11111222,11111222,99999999' 
WAVCIS,ioos:station:WAVCIS:CSI15:1,2012-09-08T14:00:00Z,28.8332,-90.8320,10.0,3.727,308.0,,'11111222,11111222,99999999' 
WAVCIS,ioos:station:WAVCIS:CSI15:1,2012-09-08T15:00:00Z,28.8332,-90.8320,10.0,3.379,311.0,,'11111222,11111222,99999999' 
WAVCIS,ioos:station:WAVCIS:CSI15:1,2012-09-08T16:00:00Z,28.8332,-90.8320,10.0,2.65,304.0,,'11111222,11111222,99999999' 
WAVCIS,ioos:station:WAVCIS:CSI15:1,2012-09-08T17:00:00Z,28.8332,-90.8320,10.0,7.92,277.0,,'11111222,11111222,99999999' 
WAVCIS,ioos:station:WAVCIS:CSI15:1,2012-09-08T18:00:00Z,28.8332,-90.8320,10.0,7.12,259.0,,'11111222,11111222,99999999' 
WAVCIS,ioos:station:WAVCIS:CSI15:1,2012-09-08T19:00:00Z,28.8332,-90.8320,10.0,7.22,218.0,,'11111222,11111222,99999999' 
WAVCIS,ioos:station:WAVCIS:CSI15:1,2012-09-08T20:00:00Z,28.8332,-90.8320,10.0,7.76,217.0,,'11111222,11111222,99999999' 
WAVCIS,ioos:station:WAVCIS:CSI15:1,2012-09-08T21:00:00Z,28.8332,-90.8320,10.0,7.5,209.0,,'11111222,11111222,99999999' 
WAVCIS,ioos:station:WAVCIS:CSI15:1,2012-09-08T22:00:00Z,28.8332,-90.8320,10.0,7.21,220.0,,'11111222,11111222,99999999' 
WAVCIS,ioos:station:WAVCIS:CSI15:1,2012-09-08T23:00:00Z,28.8332,-90.8320,10.0,8.55,222.0,,'11111222,11111222,99999999' 
WAVCIS,ioos:station:WAVCIS:CSI15:1,2012-09-09T00:00:00Z,28.8332,-90.8320,10.0,8.15,236.0,,'11111222,11111222,99999999' 
WAVCIS,ioos:station:WAVCIS:CSI15:1,2012-09-09T01:00:00Z,28.8332,-90.8320,10.0,8.54,294.0,,'11111222,11111222,99999999' 
WAVCIS,ioos:station:WAVCIS:CSI15:1,2012-09-09T02:00:00Z,28.8332,-90.8320,10.0,11.75,329.0,,'11111222,11111222,99999999' 
WAVCIS,ioos:station:WAVCIS:CSI15:1,2012-09-09T03:00:00Z,28.8332,-90.8320,10.0,5.37,52.0,,'11111222,11111222,99999999' 
WAVCIS,ioos:station:WAVCIS:CSI15:1,2012-09-09T04:00:00Z,28.8332,-90.8320,10.0,8.42,356.0,,'11111222,11111222,99999999' 
WAVCIS,ioos:station:WAVCIS:CSI15:1,2012-09-09T05:00:00Z,28.8332,-90.8320,10.0,8.48,353.0,,'11111222,11111222,99999999' 